Overview Statistics Trail Chart Weather Telemetry Raw packets
 

This is the latest recevied weather packets stored in our database for station/object N1YZ. If no packets are shown the sender has not sent any weather packets the latest 10 day(s).

<< 28 29 30 31 32 33 34 >>
Time Temp. Humidity Pressure Rain* Wind** Luminosity Snow
1788462836 34.44° C 56% 1034.8 hPa 0 mm - 112 W/m² -
1788462536 35° C 53% 1035.2 hPa 0 mm - 101 W/m² -
1788462230 35.56° C 53% 1035 hPa 0 mm - 157 W/m² -
1788461929 35.56° C 54% 1035.2 hPa 0 mm - 501 W/m² -
1788461624 36.11° C 51% 1035.2 hPa 0 mm - 584 W/m² -
1788461321 35.56° C 51% 1034.6 hPa 0 mm - 662 W/m² -
1788461017 35.56° C 53% 1035.2 hPa 0 mm - 670 W/m² -
1788460712 36.11° C 51% 1035.2 hPa 0 mm - 647 W/m² -
1788460407 35.56° C 54% 1035 hPa 0 mm - 672 W/m² -
1788460106 35.56° C 52% 1035.3 hPa 0 mm - 664 W/m² -
1788459800 35.56° C 53% 1035.4 hPa 0 mm - 630 W/m² -
1788459500 34.44° C 57% 1035.7 hPa 0 mm - 643 W/m² -
1788459195 33.89° C 57% 1035.6 hPa 0 mm - 623 W/m² -
1788458894 34.44° C 56% 1035.6 hPa 0 mm - 50 W/m² -
1788458593 35° C 55% 1035.8 hPa 0 mm - 57 W/m² -
1788458288 35° C 52% 1035.6 hPa 0 mm - 121 W/m² -
1788457987 35° C 53% 1035.8 hPa 0 mm - 165 W/m² -
1788457682 35° C 52% 1035.7 hPa 0 mm - 160 W/m² -
1788457377 34.44° C 56% 1035.9 hPa 0 mm - 111 W/m² -
1788457077 34.44° C 60% 1035.9 hPa 0 mm - 138 W/m² -
1788456773 35° C 55% 1035.9 hPa 0 mm - 235 W/m² -
1788456468 34.44° C 59% 1036 hPa 0 mm - 496 W/m² -
1788456163 34.44° C 60% 1036.2 hPa 0 mm - 69 W/m² -
1788455858 34.44° C 58% 1036.3 hPa 0 mm - 280 W/m² -
1788455553 33.89° C 63% 1036.2 hPa 0 mm - 136 W/m² -

* Rain latest hour (hover to see other rain measurements)
** Current wind speed in m/s (hover to see current wind gust speed)